Location: Mexico
(19.4000°N, 99.1500°W)
Time: 23:24:07
(UTC-06:00)

ISS - Pass Details

Date: 16 May 2019
Orbit: 407 x 410 km, 51.6° (Epoch: 23 May)

Event Time Altitude Azimuth Distance (km) Brightness Sun altitude
Rises 19:23:51 0° 183° (S) 2,312 -0.2 -5.0°
Reaches altitude 10° 19:26:47 10° 153° (SSE) 1,455 -1.5 -5.6°
Maximum altitude 19:28:22 13° 124° (SE) 1,291 -1.9 -5.9°
Drops below altitude 10° 19:29:57 10° 95° (E) 1,458 -1.6 -6.3°
Enters shadow 19:32:35 - 68° (ENE) 2,210 -0.5 -6.9°
